Regional Weather Roundup
Issued by NWS

Home | Current Version | Previous Version | Text Only | Print | Product List | Glossary Off
Versions: 1 2 3 4 5 6 7 8 9 10 11 12 13 14 15 16 17 18 19 20 21 22 23 24 25 26 27 28 29 30 31 32 33 34 35 36 37 38 39 40 41 42 43 44 45 46 47 48 49 50

000
ASUS45 KSLC 050910
RWRUT

UTAH REGIONAL WEATHER ROUNDUP
NATIONAL WEATHER SERVICE SALT LAKE CITY UT
300 AM MDT TUE MAY 05 2015

UTZ001>011-023>025-051000-

NORTHERN UTAH

CITY           SKY/WX    TMP DP  RH WIND       PRES   REMARKS
BRIGHAM CITY   PTCLDY    56  48  74 CALM      29.88S
HILL AFB       MOCLDY    53  45  75 E13       29.88F
LOGAN          CLEAR     48  43  82 W3        29.89S
OGDEN          CLOUDY    54  45  71 SE8       29.87F
PROVO AIRPORT  CLOUDY    55  46  71 CALM      29.89S
SALT LAKE CITY MOCLDY    60  44  55 SE3       29.86F
VERNAL         CLOUDY    55  41  59 NW3       29.91F
WENDOVER       PTCLDY    55  37  50 SW6       29.85F
HEBER CITY     CLOUDY    46  41  81 CALM      29.93S
WEST JORDAN    PTCLDY    55  45  67 CALM      29.88F

$$

UTZ012>022-026-027-051000-

SOUTHERN/CENTRAL UTAH

CITY           SKY/WX    TMP DP  RH WIND       PRES   REMARKS
BLANDING       CLOUDY    50  47  90 CALM      30.01F
BRYCE CANYON   CLOUDY    43  40  89 N6        30.00F
CEDAR CITY     CLOUDY    49  46  90 CALM      29.94F
DELTA          CLOUDY    53  46  79 SW3       29.90S
HANKSVILLE     CLOUDY    55  50  82 CALM      29.89F
MILFORD        RAIN      52  48  86 SW10      29.93S FOG
MOAB/CYNLANDS  CLOUDY    58  51  78 CALM      29.85F
PRICE          LGT RAIN  52  46  80 NW3       29.94F
ST GEORGE      CLOUDY    61  54  77 W6        29.89S
KANAB          MOCLDY    45  45 100 CALM      29.97F

$$

REGIONAL REPORTS     COLORADO/ARIZONA

CITY           SKY/WX    TMP DP  RH WIND       PRES   REMARKS
CRAIG, CO      PTCLDY    39  34  82 CALM      29.97F
GRAND JUNCTION CLOUDY    56  44  64 E12       29.89F
RIFLE          MOCLDY    45  40  82 E5        29.94S
MONTROSE       CLOUDY    52  46  80 S7        29.96F
CORTEZ         LGT RAIN  49  46  90 CALM      29.96F FOG
PAGE, AZ       LGT RAIN  56  51  84 CALM      29.89F
GRAND CANYON   FOG       43  42  97 W5        29.99F VSB 1/4
KINGMAN        LGT RAIN  56  49  77 SW7       29.95S
FLAGSTAFF      CLOUDY    42  41  96 SW9       30.00F

$$

REGIONAL REPORTS    NEVADA/IDAHO/WYOMING

CITY           SKY/WX    TMP DP  RH WIND       PRES   REMARKS
LAS VEGAS, NV  MOCLDY    67  48  50 SW8       29.80F
ELY            CLOUDY    43  34  70 S8        29.96F
ELKO           PTCLDY    49  37  63 NW3       29.91S
POCATELLO, ID  CLEAR     51  41  68 W3        29.86F
BURLEY         PTCLDY    52  40  63 SW9       29.83S
EVANSTON, WY   MOCLDY    44  36  73 SE5       29.99F
ROCK SPRINGS   PTCLDY    42  37  82 S6        29.99F
KEMMERER       PTCLDY    41  39  93 N10       30.01F

$$



USA.gov is the U.S. government's official web portal to all federal, state and local government web resources and services.